This is the latest recevied weather packets stored in our database for station/object GJ7DNI-13. If no packets are shown the sender has not sent any weather packets the latest 10 day(s).
| Time | Temp. | Humidity | Pressure | Rain* | Wind** | Luminosity | Snow |
|---|---|---|---|---|---|---|---|
| 1777560608 | 24.44° C | 43% | 1014.2 hPa | 0 mm | - | 255 W/m² | - |
| 1777560308 | 24.44° C | 43% | 1014.1 hPa | 0 mm | - | 478 W/m² | - |
| 1777560008 | 25° C | 42% | 1014.2 hPa | 0 mm | - | 413 W/m² | - |
| 1777559708 | 25° C | 42% | 1014.1 hPa | 0 mm | - | 367 W/m² | - |
| 1777559408 | 25.56° C | 41% | 1014.2 hPa | 0 mm | - | 413 W/m² | - |
| 1777559108 | 25.56° C | 41% | 1014.1 hPa | 0 mm | - | 373 W/m² | - |
| 1777558808 | 25.56° C | 42% | 1014.1 hPa | 0 mm | - | 408 W/m² | - |
| 1777558508 | 25.56° C | 41% | 1014.2 hPa | 0 mm | - | 798 W/m² | - |
| 1777558208 | 26.11° C | 40% | 1014.3 hPa | 0 mm | - | 594 W/m² | - |
| 1777557908 | 25.56° C | 41% | 1014.3 hPa | 0 mm | - | 404 W/m² | - |
| 1777557608 | 25.56° C | 41% | 1014.3 hPa | 0 mm | - | 737 W/m² | - |
| 1777557308 | 26.11° C | 40% | 1014.3 hPa | 0 mm | - | 752 W/m² | - |
| 1777557008 | 26.11° C | 40% | 1014.3 hPa | 0 mm | - | 679 W/m² | - |
| 1777556708 | 26.11° C | 40% | 1014.3 hPa | 0 mm | - | 679 W/m² | - |
| 1777556408 | 26.67° C | 39% | 1014.4 hPa | 0 mm | - | 606 W/m² | - |
| 1777556108 | 26.67° C | 40% | 1014.3 hPa | 0 mm | - | 671 W/m² | - |
| 1777555808 | 26.11° C | 41% | 1014.3 hPa | 0 mm | - | 756 W/m² | - |
| 1777555508 | 26.11° C | 40% | 1014.3 hPa | 0 mm | - | 756 W/m² | - |
| 1777555208 | 26.11° C | 40% | 1014.3 hPa | 0 mm | - | 749 W/m² | - |
| 1777554908 | 26.11° C | 41% | 1014.3 hPa | 0 mm | - | 738 W/m² | - |
| 1777554608 | 25.56° C | 42% | 1014.3 hPa | 0 mm | - | 744 W/m² | - |
| 1777554308 | 25° C | 43% | 1014.3 hPa | 0 mm | - | 564 W/m² | - |
| 1777554008 | 25° C | 42% | 1014.3 hPa | 0 mm | - | 759 W/m² | - |
| 1777553708 | 25° C | 41% | 1014.3 hPa | 0 mm | - | 759 W/m² | - |
| 1777553408 | 25° C | 41% | 1014.3 hPa | 0 mm | - | 749 W/m² | - |
* Rain latest hour (hover to see other rain measurements)
** Current wind speed in m/s (hover to see current wind gust speed)